Simultaneous Nadir Overpasses (SNOs) Predictions

Prediction of SNOs between AQUA and NOAA-19 Satellite Orbit:

Table of predicted SNOs for the next 14.0 days since TLE Epoch: 10/17/2014
Index Date (AQUA) Time (AQUA) Lat,Lon (AQUA) SZA (AQUA ) Date (NOAA-19) Time (NOAA-19) Lat,Lon (NOAA-19) SZA (NOAA-19 ) Distance(km) Time Diff (sec)
1 10/18/2014 21:06:22 78.36,-156.85 88.59 10/18/2014 21:06:27 78.35,-156.77 88.58 2.03 5
2 10/21/2014 01:50:44 78.55, 131.10 89.61 10/21/2014 01:50:15 78.55, 131.11 89.62 0.24 29
3 10/21/2014 02:40:00 -78.12, -59.14 90.91 10/21/2014 02:41:01 -78.11, -59.04 90.94 2.59 61
4 10/23/2014 06:35:05 78.70, 59.21 90.58 10/23/2014 06:34:02 78.70, 59.16 90.60 1.08 63
5 10/23/2014 07:24:23 -78.37,-131.39 89.84 10/23/2014 07:24:51 -78.37,-131.47 89.83 1.98 28
6 10/25/2014 12:08:43 -78.48, 156.93 88.93 10/25/2014 12:08:37 -78.48, 156.95 88.93 0.57 6
7 10/27/2014 16:53:05 -78.69, 84.74 87.93 10/27/2014 16:52:26 -78.70, 84.64 87.90 2.51 39
8 10/27/2014 17:42:24 78.36,-105.85 91.67 10/27/2014 17:43:21 78.37,-105.98 91.67 3.09 57
9 10/29/2014 21:37:24 -78.78, 13.17 87.08 10/29/2014 21:36:11 -78.78, 13.23 87.07 1.52 73




NCC Satellite Simultaneous Nadir Overpasses (SNOs) Prediction Service
